Location: Unspecified
(35.6961°N, 0.0000°E)
Time: 22:14:17
(UTC+00:00)

Courier 1B Rocket - Pass Details

Date: 28 May 2019
Orbit: 920 x 1202 km, 28.2° (Epoch: 23 June)

Event Time Altitude Azimuth Distance (km) Brightness Sun altitude
Rises 19:42:19 0° 266° (W) 4,094 9.2 -6.9°
Reaches altitude 10° 19:45:56 10° 252° (WSW) 3,128 8.2 -7.5°
Maximum altitude 19:51:29 21° 206° (SSW) 2,363 6.9 -8.5°
Drops below altitude 10° 19:56:56 10° 160° (SSE) 3,057 7.1 -9.4°
Enters shadow 19:58:08 - 154° (SSE) 3,348 7.3 -9.6°
